Theta_e
273 272 271 270 270 270 270 270 271 271 271 271 271 271 272 272 273 273 273 274 274 275 275 275 276 277 276 277 279 280 282 283 287 292 296 297 297 297 299 302 304 320 316
271 270 270 269 269 269 269 270 270 270 270 270 270 270 270 270 270 270 270 271 271 272 273 274 274 275 275 276 277 279 283 283 288 289 293 295 295 298 298 299 299 317 318
270 269 268 268 268 268 268 268 269 268 268 268 268 267 267 268 267 268 268 269 270 270 272 272 273 273 273 274 275 277 281 283 289 290 291 293 293 295 295 297 299 305 315
268 267 267 267 267 267 267 267 267 267 266 266 266 266 266 266 266 266 266 267 268 269 270 272 272 273 273 273 274 275 280 281 286 289 289 289 293 295 294 293 293 311 309
267 266 266 267 267 267 266 267 266 266 265 265 264 264 265 265 265 266 268 269 270 271 272 272 273 274 275 276 275 276 279 281 283 287 287 288 289 289 291 294 294 308 308
266 266 266 266 266 265 265 265 264 264 264 263 264 264 263 265 268 270 271 270 271 271 271 272 274 275 276 278 279 280 280 279 280 284 286 285 286 287 290 290 294 298 304
267 265 264 264 263 263 263 263 262 262 262 263 263 263 263 264 268 271 272 271 270 271 271 272 273 275 276 276 278 279 281 285 286 284 285 286 286 288 289 288 291 294 306
265 263 263 263 261 262 261 261 261 262 262 262 262 262 263 265 269 271 272 271 271 272 273 274 274 275 276 276 276 276 278 283 285 287 288 288 289 289 289 288 287 297 307
263 263 262 261 259 259 257 259 260 261 261 260 262 263 262 263 268 271 272 270 270 271 273 274 275 276 279 279 276 276 277 280 286 289 289 290 291 291 291 287 284 294 299
263 262 261 260 257 257 258 258 260 259 260 262 262 262 263 264 268 271 272 271 269 270 271 273 275 276 279 280 277 277 276 278 282 284 285 287 289 288 289 287 285 283 301
261 260 260 259 257 256 257 258 258 258 260 259 261 263 265 266 267 271 273 271 270 270 271 272 274 277 279 281 281 278 278 281 283 284 285 286 286 287 288 289 294 289 301
260 259 257 256 256 258 254 256 257 258 258 259 261 265 266 267 268 271 273 274 274 271 271 272 274 276 278 280 281 282 283 282 283 283 283 283 285 286 287 290 299 299 307
257 256 256 256 257 256 254 256 257 258 259 261 264 264 264 267 268 271 273 274 273 271 271 273 275 276 278 278 280 282 283 283 283 283 282 284 286 287 288 289 302 305 305
255 258 259 258 256 257 258 259 257 259 261 264 264 264 265 266 267 270 270 270 271 270 271 271 273 275 277 278 278 280 282 283 283 284 284 286 287 287 286 297 302 302 301
257 258 257 257 255 257 258 257 260 262 265 265 265 265 264 266 268 271 271 268 268 270 266 266 270 272 274 276 276 280 282 283 284 285 285 286 286 286 288 301 300 300 298
258 257 256 256 255 256 256 256 261 265 267 268 268 268 268 271 272 271 271 270 269 269 263 264 264 266 266 269 270 272 279 284 285 285 285 286 285 285 294 298 298 298 297
256 256 255 255 255 254 253 253 252 256 262 264 265 268 270 270 270 270 269 267 267 266 260 262 263 264 265 266 268 269 270 273 275 284 285 285 286 289 292 294 295 297 296
254 253 252 252 252 251 251 251 251 251 251 253 259 265 266 268 268 269 268 263 259 261 261 260 263 264 264 265 266 267 267 269 271 274 281 286 288 291 292 292 294 295 294
254 252 251 250 249 249 250 250 250 249 250 251 253 258 259 264 265 265 265 259 258 258 259 261 262 264 264 265 266 267 266 266 268 270 274 286 290 289 291 293 294 293 293
253 252 250 249 249 249 248 248 249 248 249 249 251 253 259 256 255 256 258 258 258 258 259 259 262 263 264 265 265 266 266 265 266 268 269 288 290 290 291 292 292 292 292
251 251 250 249 248 246 246 246 247 246 247 247 249 250 265 254 254 255 256 257 257 258 259 260 262 262 265 265 265 265 266 265 265 266 268 270 289 289 290 292 292 292 293
251 249 248 247 248 248 245 246 246 245 246 246 247 249 258 253 253 254 255 256 257 258 260 260 262 263 264 265 265 265 266 264 264 265 266 269 275 291 289 290 291 292 291
251 250 249 247 247 247 247 244 245 246 246 245 246 248 249 249 251 253 254 255 257 258 260 261 262 263 264 266 266 266 267 265 264 265 266 268 272 286 290 290 290 290 290
251 251 249 247 246 245 245 244 246 246 245 245 244 245 246 248 249 251 253 254 256 257 259 260 262 262 263 266 266 266 268 267 266 266 267 268 270 284 290 290 290 290 290
249 250 249 247 244 245 244 244 245 242 242 245 245 245 245 248 249 250 252 253 255 256 258 259 261 262 263 266 266 266 268 268 266 266 266 266 267 271 281 288 289 290 290
248 248 247 244 243 241 241 244 242 244 242 245 245 244 245 247 248 249 250 252 253 255 257 258 260 262 263 267 267 268 268 270 267 266 266 265 265 265 268 271 280 287 290
Wind_Speed
6 4 3 4 4 5 7 8 9 11 13 14 15 16 16 17 17 16 18 18 19 19 18 19 21 19 14 14 14 16 16 15 20 12 12 12 13 13 13 13 19 17 16
6 4 4 3 4 5 7 9 10 11 13 14 15 16 17 18 17 18 19 18 20 20 20 20 20 15 18 17 14 19 16 17 18 19 11 10 11 10 10 12 12 12 16
6 4 3 3 4 7 8 9 10 12 13 14 14 16 17 18 18 18 19 19 19 19 20 20 20 19 18 15 17 17 15 13 19 13 12 9 8 10 13 12 11 23 13
6 4 3 3 6 6 8 9 10 11 13 14 14 15 18 18 18 19 20 20 19 19 20 20 20 20 19 19 17 18 17 12 17 9 10 9 8 7 8 10 15 12 12
6 4 4 4 5 6 8 9 10 11 11 13 16 15 17 16 13 18 20 20 20 20 20 20 20 21 29 27 16 17 16 13 13 10 10 9 8 5 9 9 13 16 13
6 5 3 3 4 6 7 9 10 11 12 13 15 16 18 13 23 28 26 19 21 20 19 19 19 23 23 33 34 34 28 16 17 12 8 10 11 9 10 10 11 17 16
6 3 0 3 4 6 7 9 10 11 12 14 16 16 18 19 26 29 29 17 18 18 20 19 18 15 21 19 25 31 30 33 34 19 14 12 9 6 7 13 19 19 17
6 3 1 3 4 6 7 9 10 11 12 13 15 17 17 17 29 30 30 18 16 18 19 20 20 21 21 20 19 19 18 17 18 16 15 12 10 6 12 10 17 26 14
6 4 2 2 4 6 7 9 9 10 13 12 14 17 17 17 29 31 27 16 16 18 18 19 17 21 24 31 20 19 18 18 18 24 26 25 22 22 18 9 14 18 15
6 4 2 1 2 4 6 9 10 9 12 12 15 16 18 17 26 30 26 13 15 14 17 17 23 22 28 31 19 17 17 17 15 13 11 15 20 16 21 16 13 13 18
6 4 3 1 3 4 6 8 9 11 12 12 15 15 14 15 17 29 32 15 13 14 14 14 13 28 30 27 26 16 19 16 18 14 11 9 11 11 11 15 18 15 17
6 4 2 1 2 2 5 6 7 9 11 12 14 12 11 14 21 24 33 30 27 17 16 14 15 28 29 30 21 23 29 28 13 11 12 12 12 10 14 17 17 19 24
7 4 3 1 0 3 3 5 7 8 9 11 11 12 13 13 13 29 30 33 30 21 15 21 32 31 31 24 24 24 22 13 13 12 12 12 9 11 17 20 18 25 23
9 7 4 2 4 2 4 4 5 7 9 10 11 12 13 14 14 14 15 15 20 17 21 15 19 21 25 23 18 17 11 11 12 13 13 8 6 10 13 17 15 17 16
8 7 5 3 4 5 4 4 7 8 10 10 9 11 14 15 16 28 26 16 14 19 16 12 7 8 8 9 8 12 10 9 8 7 8 7 9 11 16 14 14 13 13
9 6 5 4 3 5 6 7 10 12 17 17 20 18 11 25 31 32 32 29 28 29 12 10 11 10 11 10 11 12 9 11 8 6 8 9 11 11 13 11 12 16 17
7 7 5 5 5 3 3 5 9 10 14 15 19 23 26 27 30 30 31 28 27 22 12 12 12 11 11 11 10 11 11 11 12 9 11 11 11 13 9 8 12 15 15
5 9 5 5 4 2 2 2 4 4 7 9 14 19 23 26 28 29 30 22 15 16 13 13 13 13 12 12 11 11 10 9 10 9 10 10 11 9 7 9 12 15 15
7 5 4 5 4 3 2 2 3 3 4 6 9 12 13 24 24 25 26 12 12 13 14 14 13 13 13 13 12 10 11 10 10 10 11 10 9 5 8 10 10 15 18
7 10 6 5 4 3 2 2 4 3 5 5 6 9 8 11 11 13 12 13 12 12 13 14 14 13 14 13 14 12 12 11 10 10 10 8 8 7 8 10 11 12 15
6 6 8 6 4 2 1 3 3 3 3 5 6 9 21 7 9 10 11 12 12 13 14 14 14 14 14 14 15 15 15 12 11 11 10 11 7 8 6 7 10 11 14
7 6 5 5 4 3 2 3 3 3 4 5 6 6 18 7 8 9 11 11 11 12 11 13 13 14 15 16 17 16 15 15 13 12 12 10 11 10 7 8 9 9 11
7 8 6 5 4 3 2 3 2 3 4 5 6 7 6 7 7 9 10 12 12 12 12 13 14 15 15 15 15 16 16 16 14 13 12 11 9 7 10 10 10 9 11
7 8 7 5 4 3 2 1 2 3 4 4 5 7 6 6 7 9 9 11 12 13 12 13 14 20 17 18 17 17 16 16 14 12 14 10 9 11 9 10 11 11 11
7 7 6 5 4 3 1 0 2 2 3 4 5 5 6 6 7 8 9 10 11 12 14 14 13 20 22 25 27 30 28 29 24 23 13 14 14 14 5 5 8 9 11
7 7 5 4 4 3 2 0 1 2 3 4 4 5 6 6 6 7 8 10 11 12 16 12 16 23 24 18 25 31 32 32 28 29 17 15 16 15 12 10 6 4 10
Wind_Direction
163 168 234 260 290 311 301 298 293 295 296 296 296 295 293 291 288 286 281 280 273 272 267 266 265 265 267 264 259 263 270 271 261 254 259 260 260 270 277 279 295 202 196
166 178 222 262 302 300 286 292 293 299 298 297 295 296 297 293 294 290 286 282 279 276 274 271 269 267 264 265 269 272 262 267 275 259 256 256 260 283 262 277 268 245 194
162 173 217 273 274 278 289 301 306 302 300 300 303 301 299 296 296 292 288 284 279 275 274 270 268 269 268 267 264 267 268 265 266 258 265 269 272 270 286 287 300 270 186
161 170 211 249 267 289 306 308 311 308 304 306 304 301 295 296 295 295 292 286 280 275 272 270 269 266 266 263 262 266 270 262 272 261 267 275 261 234 253 267 261 202 170
158 168 217 260 296 311 313 318 309 305 307 309 305 298 294 294 297 296 290 286 282 277 268 266 265 260 260 261 260 259 258 260 276 244 247 265 258 247 264 262 249 250 158
161 179 212 285 321 331 320 311 312 311 311 307 300 304 304 297 300 299 296 287 282 278 274 270 268 266 258 259 263 261 258 256 263 274 239 247 262 272 280 293 263 269 156
165 157 164 339 333 317 312 311 312 313 313 310 308 306 303 299 305 305 303 294 287 279 277 275 273 264 262 259 262 266 264 256 246 254 257 237 234 246 275 272 265 273 178
146 140 88 331 307 315 317 323 318 317 312 312 303 296 297 302 309 309 305 295 286 284 278 271 267 269 263 258 260 263 256 259 242 249 253 239 240 243 246 279 278 278 167
139 126 137 282 312 329 327 317 316 313 312 304 295 296 294 293 303 314 315 308 295 288 282 274 274 282 271 260 260 256 258 260 263 245 242 247 255 261 264 274 263 260 150
143 155 157 33 319 316 314 311 311 306 301 301 298 290 292 294 304 314 315 306 302 300 290 284 282 280 280 262 259 255 254 250 251 248 248 259 262 256 266 243 259 270 165
140 128 110 39 307 289 306 307 307 307 302 298 292 295 298 303 307 311 322 314 303 296 287 284 280 284 285 285 254 241 254 256 251 248 234 230 241 248 268 265 227 209 211
123 107 92 289 290 322 280 299 311 302 300 302 301 310 315 310 310 318 320 316 309 310 301 293 287 288 290 285 264 247 245 248 255 245 249 250 256 265 264 267 225 221 204
124 130 166 234 298 285 268 318 314 306 305 313 318 325 322 323 311 319 316 324 324 313 299 289 287 285 284 289 289 279 256 238 240 240 241 243 248 267 278 286 209 199 177
140 145 149 73 6 350 346 333 310 307 316 317 329 326 323 321 327 325 330 330 326 320 320 307 287 279 268 273 274 265 254 232 240 237 234 247 268 271 273 246 181 175 164
141 131 116 81 22 359 0 313 313 306 318 334 332 326 325 334 333 341 342 340 336 343 344 327 324 293 297 288 295 272 230 244 236 219 236 249 256 257 268 204 173 160 160
135 127 114 101 57 21 344 332 332 339 340 349 347 343 337 341 346 349 353 355 350 2 345 355 353 353 347 334 327 320 302 226 240 249 250 251 256 261 236 190 167 165 161
129 133 116 101 87 55 2 345 328 332 355 356 352 354 348 353 358 359 4 1 358 3 4 350 356 351 344 333 330 325 323 325 322 255 236 239 244 250 196 176 158 167 164
123 117 115 113 100 83 8 323 299 313 326 326 333 342 352 1 2 4 8 359 357 2 1 353 349 352 345 339 334 328 313 296 292 285 286 238 245 228 186 163 166 164 160
136 123 122 107 93 69 351 318 313 322 304 303 319 336 333 358 0 1 4 6 356 351 350 349 346 348 345 341 328 324 320 315 312 297 289 261 221 187 194 172 170 163 161
124 131 119 107 86 60 10 22 16 341 334 314 331 325 330 346 1 350 354 353 353 351 347 341 347 340 350 343 337 335 336 332 329 320 310 258 198 183 185 176 173 164 172
135 128 120 101 94 90 332 35 11 343 322 321 314 315 11 352 344 348 345 348 344 341 341 341 339 342 345 346 348 343 352 341 324 315 310 318 203 183 174 182 172 172 176
135 122 114 103 105 83 16 29 26 352 322 341 323 324 353 345 347 349 340 340 339 336 334 336 342 348 346 353 351 344 348 339 333 328 318 313 313 192 169 172 178 177 172
126 124 118 112 113 121 62 35 10 3 352 336 321 325 333 340 339 344 339 333 335 338 338 341 342 347 347 356 354 348 350 350 337 326 317 310 303 263 180 177 172 177 170
130 128 121 114 116 108 99 20 35 8 5 336 327 313 319 327 331 333 337 333 332 336 341 341 342 344 342 358 358 357 351 1 352 340 336 329 318 274 188 184 176 173 175
135 122 115 130 135 120 133 8 48 12 350 324 328 318 316 326 334 337 335 334 333 334 338 340 340 342 346 356 3 4 359 9 8 3 359 2 359 353 2 169 178 184 182
121 116 123 137 133 141 179 265 327 5 338 312 315 318 316 323 324 331 333 335 334 332 334 335 336 342 348 352 4 6 6 11 14 12 10 16 18 14 13 14 36 175 190